Change the Weather History Date:

Friday, October 14, 2011

  Actual Average (KPBG) Record (KPBG)
Temperature  
Mean Temperature 64 °F 48 °F  
Max Temperature 73 °F 58 °F 77 °F (1954)
Min Temperature 55 °F 38 °F 23 °F (1958)
Degree Days  
Heating Degree Days 1 17  
Month to date heating degree days 206  
Since 1 July heating degree days 441  
Cooling Degree Days 0 0  
Month to date cooling degree days 0  
Year to date cooling degree days 345  
Growing Degree Days 14 (Base 50)    
Moisture  
Dew Point 60 °F    
Average Humidity 87    
Maximum Humidity 100    
Minimum Humidity 73    
Precipitation  
Precipitation 0.00 in - 1.50 in (1978)
Month to date precipitation  
Year to date precipitation  
Sea Level Pressure  
Sea Level Pressure 29.57 in    
Wind  
Wind Speed 5 mph (SE)    
Max Wind Speed 14 mph    
Max Gust Speed 23 mph    
Visibility 10 miles    
Events Rain    
T = Trace of Precipitation, MM = Missing Value Source: NWS Daily Summary

Daily Weather History Graph

Daily Weather History Graph

Search for Another Location

Airport or City:

Trip Planner

Search our weather history database for the weather conditions in past years. The results will help you decide how hot, cold, wet, or windy it might be!

Date:

Astronomy

Oct. 14, 2011 Rise Set
Actual Time 7:06 AM EDT 6:09 PM EDT
Civil Twilight 6:36 AM EDT 6:39 PM EDT
Nautical Twilight 6:02 AM EDT 7:13 PM EDT
Astronomical Twilight 5:28 AM EDT 7:47 PM EDT
Moon 7:11 PM EDT (10/14) 9:41 AM EDT (10/14)
Length of Visible Light 12h 02m
Length of Day
11h 03m
Waning Gibbous, 94% of the Moon is Illuminated
Oct 14
Waning Gibbous
Oct 19
Last Quarter
Oct 26
New
Nov 2
First Quarter
Nov 10
Full

Hourly Weather History & Observations

Time (EDT) Temp. Dew Point Humidity Pressure Visibility Wind Dir Wind Speed Gust Speed Precip Events Conditions
12:14 AM 59.0 °F 55.4 °F 88% 29.71 in 10.0 mi ESE 3.5 mph - N/A   Clear
12:35 AM 59.0 °F 55.4 °F 88% 29.71 in 10.0 mi Calm Calm - N/A   Clear
12:54 AM 55.4 °F 53.6 °F 94% 29.71 in 10.0 mi Calm Calm - N/A   Scattered Clouds
1:35 AM 59.0 °F 55.4 °F 88% 29.69 in 10.0 mi Calm Calm - N/A   Overcast
1:54 AM 59.0 °F 55.4 °F 88% 29.69 in 10.0 mi Calm Calm - N/A   Overcast
2:15 AM 57.2 °F 55.4 °F 94% 29.68 in 10.0 mi Calm Calm - N/A   Scattered Clouds
2:35 AM 59.0 °F 55.4 °F 88% 29.69 in 10.0 mi Calm Calm - N/A   Clear
2:55 AM 57.2 °F 55.4 °F 94% 29.68 in 10.0 mi Calm Calm - N/A   Mostly Cloudy
3:15 AM 59.0 °F 55.4 °F 88% 29.66 in 10.0 mi ESE 3.5 mph - N/A   Mostly Cloudy
3:35 AM 59.0 °F 55.4 °F 88% 29.66 in 10.0 mi Calm Calm - N/A   Mostly Cloudy
3:54 AM 59.0 °F 57.2 °F 94% 29.65 in 10.0 mi ESE 4.6 mph - N/A   Overcast
4:15 AM 60.8 °F 57.2 °F 88% 29.65 in 10.0 mi Calm Calm - N/A   Overcast
4:35 AM 60.8 °F 57.2 °F 88% 29.65 in 10.0 mi SSE 4.6 mph - N/A   Overcast
4:54 AM 60.8 °F 57.2 °F 88% 29.64 in 10.0 mi SE 6.9 mph - N/A   Overcast
5:15 AM 60.8 °F 57.2 °F 88% 29.64 in 10.0 mi SE 5.8 mph - N/A   Overcast
5:35 AM 60.8 °F 57.2 °F 88% 29.63 in 10.0 mi SE 6.9 mph - N/A   Overcast
5:55 AM 60.8 °F 57.2 °F 88% 29.63 in 10.0 mi SE 6.9 mph - N/A   Scattered Clouds
6:15 AM 60.8 °F 57.2 °F 88% 29.61 in 10.0 mi SE 8.1 mph - N/A   Clear
6:35 AM 60.8 °F 57.2 °F 88% 29.62 in 10.0 mi SSE 6.9 mph - N/A   Mostly Cloudy
6:54 AM 60.8 °F 57.2 °F 88% 29.63 in 10.0 mi South 8.1 mph - N/A   Light Drizzle
7:15 AM 60.8 °F 59.0 °F 94% 29.63 in 5.0 mi SSE 4.6 mph - N/A Rain Light Rain
7:35 AM 59.0 °F 59.0 °F 100% 29.62 in 10.0 mi ESE 3.5 mph - N/A Rain Light Rain
7:55 AM 59.0 °F 59.0 °F 100% 29.61 in 10.0 mi Calm Calm - N/A   Scattered Clouds
8:15 AM 59.0 °F 59.0 °F 100% 29.61 in 10.0 mi Calm Calm - N/A Rain Light Rain
8:35 AM 60.8 °F 59.0 °F 94% 29.60 in 10.0 mi Calm Calm - N/A   Overcast
9:15 AM 62.6 °F 60.8 °F 94% 29.58 in 10.0 mi ESE 5.8 mph - N/A   Overcast
9:35 AM 62.6 °F 60.8 °F 94% 29.58 in 10.0 mi SE 5.8 mph - N/A   Mostly Cloudy
9:55 AM 66.2 °F 62.6 °F 88% 29.58 in 10.0 mi SE 9.2 mph - N/A   Scattered Clouds
10:15 AM 68.0 °F 62.6 °F 83% 29.57 in 10.0 mi SSE 10.4 mph 18.4 mph N/A   Scattered Clouds
10:35 AM 68.0 °F 62.6 °F 83% 29.56 in 10.0 mi SE 12.7 mph - N/A   Mostly Cloudy
10:55 AM 71.6 °F 62.6 °F 73% 29.56 in 10.0 mi ESE 11.5 mph - N/A   Mostly Cloudy
11:15 AM 68.0 °F 60.8 °F 78% 29.56 in 10.0 mi ESE 9.2 mph - N/A Rain Rain
11:35 AM 68.0 °F 64.4 °F 88% 29.55 in 10.0 mi SE 6.9 mph - N/A Rain Light Rain
11:55 AM 68.0 °F 60.8 °F 78% 29.54 in 10.0 mi SE 10.4 mph - N/A Rain Rain
12:16 PM 69.8 °F 62.6 °F 78% 29.53 in 10.0 mi SSE 11.5 mph 17.3 mph N/A   Mostly Cloudy
12:35 PM 69.8 °F 62.6 °F 78% 29.51 in 10.0 mi SE 13.8 mph 23.0 mph N/A   Mostly Cloudy
12:55 PM 71.6 °F 62.6 °F 73% 29.50 in 10.0 mi SE 12.7 mph 18.4 mph N/A   Scattered Clouds
1:15 PM 73.4 °F 64.4 °F 73% 29.48 in 10.0 mi SE 13.8 mph 23.0 mph N/A   Scattered Clouds
1:35 PM 68.0 °F 60.8 °F 78% 29.47 in 10.0 mi SE 12.7 mph - N/A   Mostly Cloudy
1:55 PM 69.8 °F 62.6 °F 78% 29.45 in 10.0 mi SE 9.2 mph 17.3 mph N/A Rain Light Rain
2:15 PM 68.0 °F 60.8 °F 78% 29.44 in 10.0 mi ESE 11.5 mph 18.4 mph N/A   Mostly Cloudy
2:35 PM 68.0 °F 60.8 °F 78% 29.43 in 10.0 mi SE 12.7 mph 21.9 mph N/A   Overcast
2:55 PM 68.0 °F 62.6 °F 83% 29.42 in 10.0 mi SE 11.5 mph 19.6 mph N/A   Overcast
3:14 PM 68.0 °F 62.6 °F 83% 29.41 in 10.0 mi SE 12.7 mph 19.6 mph N/A   Overcast
3:35 PM 68.0 °F 62.6 °F 83% 29.40 in 10.0 mi SE 10.4 mph - N/A Rain Light Rain
3:55 PM 68.0 °F 62.6 °F 83% 29.39 in 10.0 mi SE 9.2 mph - N/A Rain Rain
4:14 PM 68.0 °F 64.4 °F 88% 29.38 in 10.0 mi ESE 5.8 mph - N/A Rain Light Rain
4:35 PM 66.2 °F 64.4 °F 94% 29.37 in 10.0 mi SE 6.9 mph - N/A Rain Light Rain
4:55 PM 66.2 °F 64.4 °F 94% 29.36 in 10.0 mi SE 5.8 mph - N/A Rain Light Rain
5:14 PM 66.2 °F 64.4 °F 94% 29.35 in 10.0 mi ESE 3.5 mph - N/A Rain Rain
5:35 PM 64.4 °F 62.6 °F 94% 29.35 in 2.5 mi Calm Calm - N/A Rain Heavy Rain
5:55 PM 62.6 °F 62.6 °F 100% 29.34 in 3.0 mi Calm Calm - N/A Rain Rain
6:14 PM 62.6 °F 62.6 °F 100% 29.32 in 10.0 mi Calm Calm - N/A Rain Light Rain
6:35 PM 62.6 °F 62.6 °F 100% 29.31 in 4.0 mi Calm Calm - N/A Rain Light Rain
6:54 PM 62.6 °F 62.6 °F 100% 29.31 in 5.0 mi Calm Calm - N/A Rain Heavy Rain
7:15 PM 60.8 °F 60.8 °F 100% 29.30 in 5.0 mi Calm Calm - N/A Rain Rain
7:34 PM 60.8 °F 60.8 °F 100% 29.28 in 7.0 mi Calm Calm - N/A Rain Light Rain
7:55 PM 60.8 °F 60.8 °F 100% 29.28 in 10.0 mi Calm Calm - N/A Rain Light Rain
8:15 PM 60.8 °F 60.8 °F 100% 29.26 in 7.0 mi Calm Calm - N/A Rain Light Rain
8:35 PM 62.6 °F 62.6 °F 100% 29.26 in 7.0 mi SSE 8.1 mph - N/A Rain Rain
8:55 PM 62.6 °F 60.8 °F 94% 29.25 in 10.0 mi South 3.5 mph - N/A Rain Light Rain
9:15 PM 60.8 °F 60.8 °F 100% 29.23 in 10.0 mi Calm Calm - N/A   Overcast
9:34 PM 60.8 °F 60.8 °F 100% 29.24 in 10.0 mi Calm Calm - N/A   Overcast
9:55 PM 60.8 °F 60.8 °F 100% 29.24 in 7.0 mi SW 3.5 mph - N/A Rain Light Rain
10:15 PM 59.0 °F 59.0 °F 100% 29.21 in 10.0 mi Calm Calm - N/A Rain Light Rain
10:34 PM 59.0 °F 59.0 °F 100% 29.22 in 10.0 mi South 5.8 mph - N/A   Overcast
10:55 PM 59.0 °F 59.0 °F 100% 29.21 in 10.0 mi Calm Calm - N/A Rain Light Rain
11:15 PM 59.0 °F 59.0 °F 100% 29.21 in 4.0 mi Calm Calm - N/A Rain Light Rain
11:34 PM 59.0 °F 59.0 °F 100% 29.21 in 10.0 mi South 3.5 mph - N/A Rain Heavy Rain
11:55 PM 59.0 °F 59.0 °F 100% 29.20 in 10.0 mi South 4.6 mph - N/A   Light Drizzle